Dewpoint
30 25 24 26 28 28 27 25 23 25 28 27 24 23 24 42 45 45 45 46 48 51 53 57 58 56 52 46 45 46 44 43 42 42 41 42 41 41 41 41 41 41 41 42
28 20 24 29 30 26 25 24 23 26 28 27 24 22 24 43 44 45 46 48 48 52 53 53 53 53 52 48 44 43 43 42 42 43 42 42 41 40 41 42 40 41 41 42
27 26 28 27 24 25 24 25 24 25 28 25 21 17 19 28 42 42 42 48 53 54 52 52 52 52 53 52 49 43 43 43 43 43 43 43 43 42 41 41 40 41 41 42
25 28 26 27 19 26 24 26 27 27 25 20 21 14 17 21 36 41 39 43 49 53 53 53 53 53 52 53 54 44 44 43 43 44 43 42 41 40 41 41 40 40 41 41
10 26 27 24 20 27 23 28 28 28 24 20 20 18 16 20 23 28 40 46 48 53 54 53 54 53 53 53 52 51 47 44 43 44 42 42 41 41 41 41 40 40 41 41
26 29 29 26 28 27 27 25 21 25 24 19 20 17 15 18 20 23 25 29 42 52 54 54 55 56 55 54 53 52 46 45 44 44 43 42 41 41 41 40 40 40 41 41
16 16 19 26 19 22 26 22 17 14 18 15 19 17 15 20 22 22 24 28 41 49 52 54 54 54 55 54 55 53 51 49 45 44 44 43 42 42 41 40 40 40 40 40
17 11 13 22 23 22 24 21 19 11 14 16 19 14 19 23 27 27 27 29 31 44 50 51 52 54 54 54 56 54 50 49 47 46 46 47 44 44 43 42 42 41 40 40
12 6 16 23 26 24 20 22 23 20 18 15 16 16 18 22 23 25 26 26 27 28 32 39 48 51 53 53 55 56 54 48 47 46 45 44 45 44 45 44 42 41 41 41
15 14 14 17 19 22 25 25 15 18 9 10 15 15 18 19 20 24 24 21 24 26 27 30 34 40 48 51 52 54 55 55 53 49 46 44 44 45 45 45 44 42 41 41
24 17 12 8 8 12 18 19 17 15 18 14 5 6 20 20 22 22 21 18 20 19 22 23 25 35 40 42 46 49 51 52 54 54 50 47 46 45 46 46 46 44 43 41
22 17 14 9 9 19 24 21 14 11 8 11 8 10 13 17 15 15 15 15 17 19 22 22 28 36 40 41 43 44 45 48 52 53 51 48 47 48 48 49 49 47 44 43
16 10 6 7 8 8 12 17 17 17 18 13 8 8 12 13 17 18 14 14 16 21 22 23 23 24 28 35 41 42 44 44 45 47 51 50 48 48 48 48 48 47 45 44
27 16 7 4 3 8 10 13 14 14 16 12 13 11 12 17 21 22 21 18 18 23 23 23 24 25 29 33 38 41 43 44 44 45 47 51 49 48 49 49 50 49 48 46
23 18 17 16 16 16 16 16 17 15 15 13 12 12 18 23 24 22 25 23 23 23 24 25 26 27 29 33 37 40 41 42 43 43 45 47 50 49 48 48 48 48 47 46
26 18 22 20 20 19 17 17 18 18 17 16 16 15 28 28 28 26 27 27 27 26 26 26 26 28 29 30 33 38 41 41 40 41 42 44 45 46 47 48 46 45 45 44
23 23 18 13 14 12 13 12 16 23 28 25 21 27 28 27 26 26 28 25 27 28 28 28 28 28 29 31 34 37 39 40 39 40 41 42 43 44 44 45 46 45 44 43
16 20 17 14 11 9 18 27 24 25 25 25 25 25 25 26 26 25 27 22 22 24 26 27 30 30 30 31 32 36 38 38 38 39 40 41 42 42 43 44 44 44 43 42
19 17 14 13 12 13 19 25 25 25 23 24 22 22 23 23 23 23 23 22 22 23 24 26 28 29 29 30 31 33 35 37 37 38 38 39 40 42 42 42 42 41 40 40
18 17 16 16 13 12 21 23 25 26 21 21 20 19 19 19 16 17 21 21 20 21 21 22 23 24 24 27 29 31 32 35 36 38 37 38 38 39 40 41 39 38 38 37
21 19 15 15 16 19 21 22 22 20 17 22 18 17 18 18 19 19 19 19 20 20 21 22 23 24 25 27 28 31 32 33 35 37 37 36 37 38 38 38 36 36 35 34
22 23 21 21 19 17 20 19 18 18 17 17 17 18 18 18 18 19 19 19 19 20 20 21 22 23 24 26 28 29 32 33 34 36 36 35 35 36 36 35 34 34 33 32
19 21 20 21 19 22 17 18 19 16 16 17 18 18 19 18 18 18 18 17 18 19 20 23 24 24 24 24 26 28 28 31 33 34 35 35 34 34 33 32 33 33 33 32
21 20 23 21 20 21 18 17 17 17 17 18 18 17 17 16 17 17 18 17 18 20 22 21 21 22 22 24 25 27 28 31 32 33 35 34 32 32 32 33 33 33 32 32
18 17 15 14 15 15 16 17 17 17 17 16 17 16 16 16 16 16 18 18 18 20 18 19 19 20 21 23 25 26 28 29 32 33 34 32 33 34 33 33 33 33 33 33
15 11 10 10 17 16 16 17 16 15 15 15 16 15 15 16 16 17 17 17 19 20 19 20 20 21 23 25 26 27 28 28 30 32 31 32 32 33 32 31 30 35 34 35
Lifted_Index
5 5 4 5 5 4 4 3 3 2 1 1 1 1 0 -1 -2 -1 -1 -0 0 2 2 2 3 3 3 2 2 4 5 7 8 9 10 11 11 11 11 11 11 12 12 12
5 4 5 5 5 4 3 3 2 2 1 1 1 1 0 -1 -1 -1 -1 -1 -0 0 1 2 3 3 3 3 3 4 5 7 8 9 10 11 11 11 11 11 11 12 12 12
4 5 5 5 4 4 3 3 2 2 1 1 1 1 1 0 -1 -1 -1 -1 -1 -0 0 2 3 3 4 4 4 4 5 7 8 9 10 11 11 11 11 11 11 12 12 12
4 5 5 5 5 4 4 3 2 2 1 1 1 1 1 1 0 -0 -1 -1 -1 -0 0 1 2 2 3 4 4 5 5 7 8 10 10 11 11 11 11 11 11 12 12 12
4 5 5 5 6 5 4 3 3 2 2 1 1 1 1 2 2 1 1 0 -0 -1 -0 -0 0 1 2 3 4 5 5 6 7 9 10 10 11 11 11 11 11 11 12 12
5 5 6 6 6 6 5 4 3 2 2 2 1 2 2 2 3 4 4 3 1 -1 -1 -1 -1 -0 1 2 3 4 4 4 5 7 8 9 9 10 10 10 11 11 11 11
4 5 6 7 7 6 6 4 3 2 1 2 2 2 3 3 4 5 5 5 3 1 -0 -1 -1 -0 0 1 2 4 4 4 3 4 6 6 7 7 8 9 10 10 10 10
4 5 6 7 7 7 6 5 4 2 2 2 3 3 3 4 4 5 6 6 5 4 3 1 0 0 0 1 2 3 3 3 3 3 3 4 4 5 6 7 8 8 9 9
5 5 6 7 8 8 7 6 5 4 2 2 3 4 4 4 5 5 6 7 7 7 6 6 4 3 2 1 2 2 2 3 3 3 2 2 3 3 3 4 6 6 7 8
6 5 6 7 7 8 7 7 6 5 3 2 3 4 5 5 5 6 6 7 7 8 8 8 7 6 5 4 3 2 2 2 2 3 3 3 3 2 2 2 3 4 6 7
7 6 6 6 7 7 8 8 7 6 4 3 3 4 6 6 6 7 7 8 8 8 8 8 8 8 7 6 5 4 3 3 3 3 3 3 3 3 2 2 2 3 4 5
8 7 6 6 7 8 8 8 8 7 5 4 4 5 7 7 7 8 8 8 8 8 8 8 8 8 8 8 7 6 6 5 4 4 4 4 4 3 3 2 2 2 2 3
8 7 5 5 6 7 7 7 8 7 6 5 4 6 8 8 8 8 8 8 8 8 8 8 8 9 8 8 8 8 7 6 6 5 5 5 4 4 3 3 2 2 1 1
8 7 5 5 5 6 6 6 7 6 5 4 4 6 8 8 8 8 8 8 8 8 8 9 9 9 9 9 9 8 7 7 6 6 6 5 4 4 4 4 3 2 2 1
7 6 5 5 5 5 5 5 5 5 5 5 5 6 7 8 8 8 8 8 8 8 9 9 9 9 9 9 9 9 8 7 7 7 6 5 5 4 4 3 3 3 3 3
6 5 5 4 4 5 4 5 5 5 6 6 6 6 7 8 8 8 8 8 9 9 9 9 9 9 9 9 9 9 9 8 7 7 7 6 5 5 4 4 3 3 3 3
6 5 4 4 4 4 5 5 5 6 6 6 7 7 8 8 8 8 8 8 9 9 10 10 10 9 9 10 10 10 9 9 8 8 8 7 7 6 5 4 4 4 3 4
5 5 5 5 4 4 5 6 6 6 7 7 7 8 8 8 8 9 9 9 10 10 11 11 11 10 10 10 10 10 10 9 9 8 8 8 7 7 6 5 5 4 4 4
5 6 6 5 4 4 6 7 7 7 7 8 8 8 9 9 8 8 9 10 11 11 12 12 12 11 11 10 10 10 10 9 8 8 8 7 7 7 6 6 5 5 5 4
6 6 6 5 4 5 6 7 7 7 7 8 9 9 9 9 9 9 10 11 12 12 13 13 13 13 12 11 11 11 10 9 8 8 8 8 7 7 6 6 6 5 5 5
6 6 6 6 5 6 7 7 7 7 8 9 10 10 11 11 11 12 13 13 13 13 13 14 14 14 13 13 13 12 11 10 9 9 8 8 7 7 6 6 6 5 5 6
7 7 7 7 7 7 8 8 8 9 10 11 11 12 12 12 13 14 15 15 15 15 14 15 15 14 14 14 14 13 13 12 11 10 9 9 8 7 6 6 6 5 5 6
8 8 8 8 8 8 9 10 11 12 12 13 13 13 13 13 13 14 15 15 16 16 16 16 15 15 15 15 14 14 13 13 12 11 10 10 9 8 7 6 6 6 6 6
10 10 10 9 10 10 11 12 13 14 14 14 14 14 14 13 13 14 14 14 15 15 16 16 16 15 15 14 14 13 13 13 12 11 10 9 9 9 8 7 7 6 6 6
11 11 11 10 10 11 11 12 13 14 14 14 14 14 13 13 12 12 12 12 12 13 13 14 14 13 13 13 12 11 11 11 10 9 9 8 8 8 8 8 7 7 7 7
12 12 11 11 11 11 11 12 13 13 13 13 13 12 12 12 11 11 10 10 10 10 11 11 12 12 12 11 11 10 10 10 9 8 7 7 7 7 8 8 7 7 8 9